Home > Weather > Kuching > Past weeks

Flag for Malaysia Past Weather in Kuching, Malaysia — Yesterday and Last 2 Weeks

Now
84 °F

Light rain. Broken clouds.


Feels Like: 91 °F
Forecast: 78 / 91 °F
Wind: 5 mph from Southwest

Location: Kuching Airport

Current Time: Aug 26, 2016 at 2:58:50 PM

Latest Report: Aug 26, 2016 at 2:30 PM


Visibility: N/A

Pressure: 29.80 "Hg

Humidity: 70%

Dew Point: 73 °F

Location of KuchingLocation

Past Weather in Kuching — Graph

°F

Kuching Temperature Yesterday

Maximum temperature yesterday: 90 °F (at 1:00 PM)
Minimum temperature yesterday: 73 °F (at 11:00 PM)
Average temperature yesterday: 79 °F

High & Low Weather Summary for the Past Weeks

 TemperatureHumidityPressure
High97 °F (Aug 17, 3:30 PM)100% (Aug 12, 6:30 AM)29.86 "Hg (Aug 12, 6:30 AM)
Low73 °F (Aug 22, 6:30 PM)47% (Aug 13, 2:30 PM)29.65 "Hg (Aug 17, 4:00 PM)
Average82 °F82%29.77 "Hg
* Reported Aug 11 1:00 PM — Aug 26 1:30 PM, Kuching, Weather by CustomWeather, © 2016

Note: Actual official high and low records may vary slightly from our data, if they occured in-between our weather recording intervals... More about our weather records

Advertising

Kuching Weather History for the Previous 24 Hours

Scroll right to see more
 ConditionsComfort  
Time TempWeatherWind HumidityBarometerVisibility
1:30 PM
Fri, Aug 26
82 °FLight rain. Broken clouds.2 mph84%29.83 "Hg5 mi
1:00 PM81 °FLight rain. Broken clouds.3 mph89%29.86 "Hg5 mi
12:30 PM81 °FSprinkles. Broken clouds.8 mph84%29.86 "Hg4 mi
12:00 PM84 °FSprinkles. Broken clouds.6 mph70%29.86 "Hg5 mi
11:30 AM86 °FScattered showers. Broken clouds.10 mph66%29.86 "Hg5 mi
11:00 AM84 °FPartly sunny.7 mph70%29.86 "HgN/A
10:30 AM82 °FPartly sunny.8 mph79%29.86 "HgN/A
10:00 AM81 °FPartly sunny.10 mph79%29.86 "HgN/A
9:30 AM79 °FPartly sunny.7 mph84%29.86 "HgN/A
9:00 AM79 °FPartly sunny.5 mph84%29.86 "HgN/A
8:30 AM77 °FBroken clouds.3 mph89%29.83 "HgN/A
8:00 AM75 °FBroken clouds.3 mph94%29.83 "HgN/A
7:30 AM73 °FBroken clouds.3 mph94%29.83 "HgN/A
7:00 AM73 °FBroken clouds.1 mph94%29.83 "HgN/A
6:30 AM73 °FPartly cloudy.2 mph94%29.80 "HgN/A
6:00 AM73 °FPartly cloudy.3 mph94%29.80 "HgN/A
5:30 AM73 °FPartly cloudy.3 mph94%29.80 "HgN/A
5:00 AM73 °FPartly cloudy.1 mph94%29.77 "HgN/A
4:30 AM73 °FPartly cloudy.5 mph94%29.77 "HgN/A
4:00 AM73 °FPartly cloudy.5 mph94%29.77 "HgN/A
3:30 AM73 °FPartly cloudy.5 mph100%29.77 "HgN/A
3:00 AM73 °FPartly cloudy.5 mph100%29.77 "HgN/A
2:30 AM73 °FPartly cloudy.5 mph100%29.80 "HgN/A
2:00 AM73 °FPartly cloudy.3 mph94%29.80 "HgN/A
1:30 AM73 °FPartly cloudy.3 mph100%29.80 "HgN/A
1:00 AM73 °FPartly cloudy.6 mph100%29.80 "HgN/A
12:30 AM73 °FPassing clouds.3 mph100%29.80 "HgN/A
12:00 AM73 °FPassing clouds.5 mph100%29.80 "HgN/A
11:30 PM
Thu, Aug 25
73 °FPartly cloudy.3 mph100%29.83 "HgN/A
11:00 PM73 °FPartly cloudy.2 mph100%29.83 "HgN/A
10:30 PM75 °FPartly cloudy.3 mph94%29.86 "HgN/A
10:00 PM75 °FPartly cloudy.3 mph94%29.86 "HgN/A
9:30 PM75 °FPartly cloudy.2 mph94%29.83 "HgN/A
9:00 PM75 °FLight rain. Partly cloudy.3 mph94%29.83 "Hg5 mi
8:30 PM75 °FLight rain. Partly cloudy.3 mph94%29.83 "Hg5 mi
8:00 PM75 °FLight rain. Partly cloudy.5 mph94%29.83 "Hg5 mi
7:30 PM75 °FLight rain. Partly cloudy.6 mph94%29.80 "Hg5 mi
7:00 PM75 °FLight rain. Partly cloudy.3 mph94%29.80 "Hg5 mi
6:30 PM75 °FLight rain. Broken clouds.3 mph94%29.80 "Hg5 mi
6:00 PM75 °FThunderstorms. Broken clouds.5 mph89%29.77 "Hg5 mi
5:30 PM75 °FThunderstorms. Broken clouds.10 mph94%29.77 "Hg2 mi
5:00 PM75 °FStrong thunderstorms. Broken clouds.14 mph89%29.77 "Hg1 mi
4:30 PM75 °FStrong thunderstorms. Broken clouds.17 mph94%29.74 "Hg1 mi
4:00 PM86 °FBroken clouds.7 mph75%29.71 "Hg5 mi
3:30 PM88 °FBroken clouds.3 mph75%29.71 "Hg5 mi
3:00 PM88 °FBroken clouds.5 mph70%29.71 "Hg5 mi
2:30 PM88 °FThunderstorms. Broken clouds.3 mph75%29.71 "Hg5 mi
2:00 PM86 °FThunderstorms. Broken clouds.6 mph79%29.74 "Hg4 mi
Weather by CustomWeather, © 2016

See weather overviewHow to use our weather pages